Weather Roundup
Issued by NWS Chicago, IL

Home | Current Version | Previous Version | Graphics & Text | Print | Product List | Glossary On
Versions: 1 2 3 4 5 6 7 8 9 10 11 12 13 14 15 16 17 18 19 20 21 22 23 24 25 26 27 28 29 30 31 32 33 34 35 36 37 38 39 40 41 42 43 44 45 46 47 48 49 50
361
NZUS59 KLOT 251008
HRRLOT

CHICAGO AREA WEATHER ROUNDUP
NATIONAL WEATHER SERVICE CHICAGO/ROMEOVILLE IL
500 AM CDT WED APR 25 2018

NOTE: "FAIR" INDICATES FEW OR NO CLOUDS BELOW 12,000 FEET WITH NO
SIGNIFICANT WEATHER AND/OR OBSTRUCTIONS TO VISIBILITY.

* THESE STATIONS ARE NOT UNDER NWS QUALITY CONTROL. THEY ALSO MAY NOT
  REPORT WEATHER SUCH AS PRECIPITATION OR FOG.

ILZ005-006-012>014-019>023-251100-
NORTHEAST ILLINOIS

CITY           SKY/WX    TMP DP  RH WIND       PRES   REMARKS
OHARE          CLOUDY    44  30  57 N18       30.05S
MIDWAY         CLOUDY    45  32  60 N18       30.05R
AURORA           N/A     44  32  62 N13       30.07R
LANSING*       CLOUDY    42  35  76 N10G18    30.04R
JOLIET*          N/A     46  32  57 N10       30.06R
WAUKEGAN         N/A     42  32  67 N12G23    30.07R
DUPAGE AIRPORT   N/A     43  32  65 N15       30.05S
WHEELING         N/A     45  31  58 N16G23    30.08R
KANKAKEE*        N/A     44  36  72 N9        30.04R
MORRIS*          N/A     45  32  60 N6        30.06R
LEWIS AIRPORT*   N/A     44  32  63 NE16      30.05R
NORTHERLY ISL    N/A     41  33  73 NW21        N/A
$$

WIZ051-052-058>065-066-070>072-251100-
SOUTHEAST WISCONSIN

CITY           SKY/WX    TMP DP  RH WIND       PRES   REMARKS
MILWAUKEE        N/A     42  34  73 N21G31    30.10R
KENOSHA*         N/A     41  32  70 N15       30.09R
RACINE*          N/A     39  34  82 N20G26    30.11R
BURLINGTON       N/A     41  33  72 N10       30.10R
WAUKESHA         N/A     37  32  81 N6        30.12R
WEST BEND        N/A     36  34  93 CALM      30.11S
$$

INZ001>003-010>013-019-020-251100-
NORTHWEST INDIANA

CITY           SKY/WX    TMP DP  RH WIND       PRES   REMARKS
GARY*          CLOUDY    43  34  70 N20       30.04R
MICHIGAN CITY* NOT AVBL
RENSSELAER*    NOT AVBL
VALPARAISO     CLOUDY    44  38  79 N12       30.00S
$$

LMZ740>746-251100-
SOUTHERN LAKE MICHIGAN

STATION/POSITION TIME  SKY/WX   TEMP WIND        PRES    VSBY
                                AIR  DIR/SP/G
                 (UTC)          (F)  (DEG/KT/KT) (MB)    (MI)
HARRISON CRIB    0940            41  350/ 21/ 23   N/A
BURNHAM HARBOR   1000            41  330/ 17/ 23   N/A
CALUMET HARBOR   0948            41  330/ 17/ 24 1016.6S
BURNS HARBOR     0940            41   20/  9/ 11 1017.3R
MICHIGAN CITY    0940            41   10/  8/  9   N/A
$$

ABBREVIATIONS USED IN REMARKS
   TC - TEMPERATURE IN CELSIUS
  WCI - WIND CHILL INDEX
   HX - HEAT INDEX
  VSB - VISIBILITY
$$




USA.gov is the U.S. government's official web portal to all federal, state and local government web resources and services.